Muscle Shoals, AL

2:39 PM CST on February 11, 2016 (GMT -0600)
Northwest Alabama Regional

Weather History for KMSL - January, 2013

Change the Weather History Date:

Wednesday, January 9, 2013

  Actual Average Record
Temperature  
Mean Temperature 54 °F 41 °F  
Max Temperature 58 °F 50 °F 74 °F (1957)
Min Temperature 50 °F 31 °F 3 °F (1970)
Degree Days  
Heating Degree Days 11 24  
Month to date heating degree days 201 216  
Since 1 July heating degree days 1299 1452  
Cooling Degree Days 0 0  
Month to date cooling degree days 0 0  
Year to date cooling degree days 0 0  
Growing Degree Days 4 (Base 50)    
Moisture  
Dew Point 51 °F    
Average Humidity 81    
Maximum Humidity 96    
Minimum Humidity 66    
Precipitation  
Precipitation 1.63 in 0.15 in 2.41 in (1952)
Month to date precipitation 2.77 1.34  
Year to date precipitation 2.77 1.34  
Snow  
Snow 0.00 in - - ()
Month to date snowfall 0.0  
Since 1 July snowfall T  
Snow Depth 0.00 in    
Sea Level Pressure  
Sea Level Pressure 30.34 in    
Wind  
Wind Speed 4 mph (East)    
Max Wind Speed 10 mph    
Max Gust Speed 15 mph    
Visibility 4 miles    
Events Rain    
T = Trace of Precipitation, MM = Missing Value Source: NWS Daily Summary

Daily Weather History Graph

Daily Weather History Graph

Search for Another Location

Airport or City:

Trip Planner

Search our weather history database for the weather conditions in past years. The results will help you decide how hot, cold, wet, or windy it might be!

Date:

Astronomy

Jan. 09, 2013 Rise Set
Actual Time 6:58 AM CST 4:57 PM CST
Civil Twilight 6:30 AM CST 5:25 PM CST
Nautical Twilight 5:59 AM CST 5:56 PM CST
Astronomical Twilight 5:28 AM CST 6:26 PM CST
Moon 4:37 AM CST (1/9) 2:58 PM CST (1/9)
Length of Visible Light 10h 54m
Length of Day
9h 59m
Waning Crescent, 6% of the Moon is Illuminated
Jan 9
Waning Crescent
Jan 11
New
Jan 18
First Quarter
Jan 26
Full
Feb 3
Last Quarter

Hourly Weather History & Observations

Time (CST) Temp. Dew Point Humidity Pressure Visibility Wind Dir Wind Speed Gust Speed Precip Events Conditions
12:05 AM 53.6 °F 42.8 °F 67% 30.27 in 10.0 mi SE 6.9 mph - N/A   Overcast
12:53 AM 52.0 °F 44.1 °F 74% 30.27 in 10.0 mi SE 5.8 mph - N/A   Overcast
1:53 AM 53.1 °F 45.0 °F 74% 30.28 in 10.0 mi ESE 3.5 mph - N/A   Overcast
2:00 AM 53.6 °F 44.6 °F 72% 30.28 in 10.0 mi ESE 3.5 mph - N/A   Overcast
2:46 AM 51.8 °F 44.6 °F 76% 30.30 in 9.0 mi Calm Calm - N/A   Overcast
2:53 AM 52.0 °F 45.0 °F 77% 30.29 in 9.0 mi Calm Calm - 0.00 in Rain Light Rain
3:53 AM 50.0 °F 46.9 °F 89% 30.30 in 5.0 mi East 3.5 mph - 0.05 in Rain Light Rain
4:37 AM 51.8 °F 48.2 °F 88% 30.29 in 5.0 mi East 5.8 mph - 0.04 in Rain Light Rain
4:53 AM 51.1 °F 48.0 °F 89% 30.29 in 5.0 mi ESE 5.8 mph - 0.04 in Rain Light Rain
5:15 AM 51.8 °F 48.2 °F 88% 30.30 in 4.0 mi ESE 4.6 mph - 0.03 in Rain Rain
5:24 AM 51.8 °F 48.2 °F 88% 30.30 in 4.0 mi East 3.5 mph - 0.05 in Rain Rain
5:46 AM 51.8 °F 48.2 °F 88% 30.31 in 2.5 mi East 4.6 mph - 0.14 in Rain Heavy Rain
5:53 AM 51.1 °F 48.0 °F 89% 30.31 in 3.0 mi East 4.6 mph - 0.16 in Rain Heavy Rain
6:02 AM 51.8 °F 48.2 °F 88% 30.31 in 3.0 mi East 4.6 mph - 0.02 in Rain Rain
6:53 AM 51.1 °F 48.9 °F 92% 30.34 in 3.0 mi ENE 3.5 mph - 0.11 in Rain Rain
7:07 AM 51.8 °F 48.2 °F 88% 30.34 in 2.5 mi East 4.6 mph - 0.04 in Rain Rain
7:22 AM 51.8 °F 48.2 °F 88% 30.35 in 2.5 mi East 5.8 mph - 0.08 in Rain Rain
7:48 AM 51.8 °F 48.2 °F 88% 30.36 in 2.5 mi ENE 3.5 mph - 0.10 in Rain Light Rain
7:53 AM 52.0 °F 48.9 °F 89% 30.37 in 2.0 mi Calm Calm - 0.11 in Rain Light Rain
8:00 AM 51.8 °F 48.2 °F 88% 30.37 in 1.2 mi ENE 3.5 mph - 0.06 in Rain Heavy Rain
8:14 AM 51.8 °F 48.2 °F 88% 30.37 in 2.0 mi East 4.6 mph - 0.07 in Rain Light Rain
8:49 AM 51.8 °F 48.2 °F 88% 30.38 in 2.5 mi ENE 4.6 mph - 0.09 in Rain Light Rain
8:53 AM 52.0 °F 50.0 °F 93% 30.38 in 2.5 mi East 4.6 mph - 0.09 in Rain Light Rain
9:10 AM 53.6 °F 50.0 °F 88% 30.38 in 3.0 mi East 5.8 mph - 0.01 in Rain Light Rain
9:31 AM 53.6 °F 50.0 °F 88% 30.39 in 3.0 mi East 4.6 mph - 0.01 in   Overcast
9:53 AM 53.1 °F 50.0 °F 89% 30.39 in 3.0 mi East 3.5 mph - 0.02 in   Overcast
10:13 AM 53.6 °F 50.0 °F 88% 30.39 in 1.8 mi East 4.6 mph - 0.04 in Rain Heavy Rain
10:24 AM 53.6 °F 51.8 °F 94% 30.38 in 1.2 mi ESE 4.6 mph - 0.10 in Rain Heavy Rain
10:35 AM 53.6 °F 51.8 °F 94% 30.37 in 2.0 mi East 4.6 mph - 0.12 in Rain Rain
10:50 AM 53.6 °F 51.8 °F 94% 30.37 in 2.5 mi East 5.8 mph - 0.14 in Rain Light Rain
10:53 AM 54.0 °F 51.1 °F 90% 30.37 in 3.0 mi East 5.8 mph - 0.14 in Rain Light Rain
11:17 AM 53.6 °F 51.8 °F 94% 30.36 in 1.2 mi ESE 5.8 mph - 0.07 in Rain Heavy Rain
11:53 AM 54.0 °F 52.0 °F 93% 30.34 in 3.0 mi East 5.8 mph - 0.22 in Rain Light Rain
12:13 PM 55.4 °F 51.8 °F 88% 30.34 in 3.0 mi ENE 4.6 mph - 0.00 in Rain Light Rain
12:31 PM 55.4 °F 51.8 °F 88% 30.34 in 2.5 mi ENE 3.5 mph - 0.02 in Rain Light Rain
12:37 PM 55.4 °F 51.8 °F 88% 30.34 in 3.0 mi Calm Calm - 0.03 in Rain Light Rain
12:44 PM 55.4 °F 51.8 °F 88% 30.34 in 2.5 mi Calm Calm - 0.03 in Rain Light Rain
12:53 PM 55.0 °F 52.0 °F 89% 30.34 in 2.5 mi Calm Calm - 0.04 in Rain Light Rain
1:09 PM 55.4 °F 51.8 °F 88% 30.34 in 1.2 mi NNE 3.5 mph - 0.05 in Rain Heavy Rain
1:53 PM 55.0 °F 52.0 °F 89% 30.33 in 2.0 mi NE 8.1 mph - 0.19 in Rain Light Rain
2:10 PM 55.4 °F 53.6 °F 94% 30.33 in 2.5 mi ENE 6.9 mph - 0.01 in Rain Light Rain
2:18 PM 55.4 °F 53.6 °F 94% 30.33 in 3.0 mi ENE 6.9 mph - 0.01 in Rain Light Rain
2:39 PM 55.4 °F 53.6 °F 94% 30.33 in 5.0 mi East 4.6 mph - 0.02 in Rain Light Rain
2:53 PM 55.9 °F 53.1 °F 90% 30.33 in 5.0 mi ENE 3.5 mph - 0.02 in Rain Light Rain
3:23 PM 57.2 °F 53.6 °F 88% 30.33 in 4.0 mi East 4.6 mph - 0.01 in Rain Light Rain
3:38 PM 57.2 °F 53.6 °F 88% 30.33 in 4.0 mi East 5.8 mph - 0.02 in Rain Light Rain
3:53 PM 57.0 °F 54.0 °F 89% 30.33 in 3.0 mi East 5.8 mph - 0.04 in Rain Light Rain
4:12 PM 55.4 °F 53.6 °F 94% 30.33 in 4.0 mi East 5.8 mph - 0.01 in Rain Light Rain
4:36 PM 55.4 °F 53.6 °F 94% 30.32 in 3.0 mi East 3.5 mph - 0.03 in Rain Light Rain
4:53 PM 55.9 °F 54.0 °F 93% 30.32 in 3.0 mi East 4.6 mph - 0.04 in Rain Light Rain
5:53 PM 55.9 °F 54.0 °F 93% 30.34 in 3.0 mi Calm Calm - 0.03 in Rain Light Rain
6:02 PM 57.2 °F 53.6 °F 88% 30.34 in 3.0 mi NE 4.6 mph - 0.02 in Rain Rain
6:53 PM 57.0 °F 54.0 °F 89% 30.35 in 3.0 mi ENE 5.8 mph - 0.08 in Rain Heavy Rain
7:05 PM 57.2 °F 53.6 °F 88% 30.36 in 2.5 mi NE 4.6 mph - 0.05 in Rain Heavy Rain
7:20 PM 57.2 °F 53.6 °F 88% 30.36 in 3.0 mi ENE 8.1 mph - 0.09 in Rain Rain
7:53 PM 57.0 °F 55.0 °F 93% 30.37 in 4.0 mi NE 5.8 mph - 0.14 in Rain Light Rain
8:53 PM 57.9 °F 55.0 °F 90% 30.35 in 7.0 mi East 6.9 mph - 0.03 in   Overcast
9:53 PM 57.9 °F 55.0 °F 90% 30.34 in 5.0 mi East 8.1 mph - 0.07 in Rain Rain
10:53 PM 57.9 °F 55.0 °F 90% 30.34 in 7.0 mi East 4.6 mph - 0.01 in   Overcast
11:53 PM 57.9 °F 55.0 °F 90% 30.34 in 4.0 mi ESE 4.6 mph - 0.00 in   Overcast